EW4685 Weather Reports


Display with metric or nautical units.
time (UTC)temp
F
wind
direction
speed
MPH
gust
MPH
rain 1hr
in
rain 24hr
in
rain mn
in
humidity
%
barometer
mb
20260831105948 51 46 0.0 0.0 0.00 0.00 0.00 77 1028.2
20260831105447 52 46 0.0 0.0 0.00 0.00 0.00 77 1028.2
20260831104947 52 46 0.0 0.0 0.00 0.00 0.00 76 1028.2
20260831104449 53 46 0.0 0.0 0.00 0.00 0.00 75 1028.4
20260831103952 53 46 0.0 0.0 0.00 0.00 0.00 75 1028.4
20260831103932 53 46 0.0 0.0 0.00 0.00 0.00 75 1028.4
20260831103433 54 46 0.0 0.0 0.00 0.00 0.00 74 1028.4
20260831102445 54 46 0.0 0.0 0.00 0.00 0.00 74 1028.2
20260831101946 55 46 0.0 0.0 0.00 0.00 0.00 73 1028.4
20260831101704 55 46 0.0 1.0 0.00 0.00 0.00 73 1028.2
20260831100943 55 64 0.0 2.0 0.00 0.00 0.00 73 1028.1
20260831100446 56 33 0.0 4.0 0.00 0.00 0.00 73 1028.1
20260831095942 56 22 0.0 4.0 0.00 0.00 0.00 73 1028.1
20260831095443 56 40 0.0 2.0 0.00 0.00 0.00 73 1028.1
20260831094944 56 36 0.0 3.0 0.00 0.00 0.00 73 1028.1
20260831094443 57 43 1.0 3.0 0.00 0.00 0.00 72 1028.1
20260831093949 57 35 1.0 4.0 0.00 0.00 0.00 71 1028.1
20260831093442 57 40 0.0 4.0 0.00 0.00 0.00 71 1028.1
20260831092943 57 25 0.0 2.0 0.00 0.00 0.00 71 1028.1
20260831092440 57 21 0.0 2.0 0.00 0.00 0.00 71 1028.0
20260831091940 58 39 0.0 2.0 0.00 0.00 0.00 70 1028.1
20260831091440 58 31 0.0 3.0 0.00 0.00 0.00 70 1028.1
20260831090940 58 18 0.0 3.0 0.00 0.00 0.00 69 1028.0
20260831090439 58 42 0.0 4.0 0.00 0.00 0.00 68 1028.0
20260831090159 58 33 1.0 4.0 0.00 0.00 0.00 68 1028.0
20260831085434 59 41 1.0 4.0 0.00 0.00 0.00 67 1027.9
20260831084934 59 19 1.0 4.0 0.00 0.00 0.00 67 1027.9
20260831084435 59 28 1.0 4.0 0.00 0.00 0.00 66 1027.9
20260831083932 59 8 1.0 4.0 0.00 0.00 0.00 65 1027.9
20260831083433 59 37 1.0 4.0 0.00 0.00 0.00 65 1027.9
20260831082931 60 52 0.0 3.0 0.00 0.00 0.00 64 1027.9
20260831082430 60 26 1.0 4.0 0.00 0.00 0.00 63 1027.9
20260831081928 60 34 1.0 4.0 0.00 0.00 0.00 62 1027.9
20260831081431 60 0 0.0 3.0 0.00 0.00 0.00 61 1027.8
20260831080928 60 41 1.0 4.0 0.00 0.00 0.00 60 1027.8
20260831080651 61 20 0.0 4.0 0.00 0.00 0.00 59 1027.8
20260831075928 61 344 0.0 3.0 0.00 0.00 0.00 57 1027.7
20260831075430 62 338 0.0 3.0 0.00 0.00 0.00 56 1027.6
20260831074924 62 51 0.0 3.0 0.00 0.00 0.00 55 1027.6
20260831074416 63 33 0.0 3.0 0.00 0.00 0.00 54 1027.6
20260831073915 63 19 1.0 6.0 0.00 0.00 0.00 53 1027.6
20260831073627 64 337 1.0 6.0 0.00 0.00 0.00 51 1027.6
20260831072859 64 354 1.0 5.0 0.00 0.00 0.00 50 1027.5
20260831072356 65 299 1.0 5.0 0.00 0.00 0.00 49 1027.5
20260831071854 65 299 1.0 5.0 0.00 0.00 0.00 47 1027.5
20260831071614 66 354 1.0 5.0 0.00 0.00 0.00 46 1027.4
20260831070853 66 62 1.0 5.0 0.00 0.00 0.00 44 1027.5
20260831070353 66 311 2.0 7.0 0.00 0.00 0.00 41 1027.5
20260831065855 66 36 3.0 7.0 0.00 0.00 0.00 39 1027.4
20260831065353 67 53 2.0 6.0 0.00 0.00 0.00 38 1027.4
20260831065116 67 12 2.0 8.0 0.00 0.00 0.00 37 1027.5
20260831064350 67 34 2.0 8.0 0.00 0.00 0.00 35 1027.5
20260831064117 68 27 1.0 6.0 0.00 0.00 0.00 34 1027.5
20260831063350 68 307 1.0 6.0 0.00 0.00 0.00 34 1027.5
20260831062848 68 51 2.0 7.0 0.00 0.00 0.00 34 1027.5
20260831062348 69 320 1.0 7.0 0.00 0.00 0.00 34 1027.4
20260831061849 69 14 1.0 6.0 0.00 0.00 0.00 34 1027.4
20260831061348 69 14 2.0 7.0 0.00 0.00 0.00 33 1027.4
20260831060850 69 305 2.0 7.0 0.00 0.00 0.00 31 1027.4
20260831060611 69 284 2.0 6.0 0.00 0.00 0.00 31 1027.4
20260831055845 69 348 3.0 7.0 0.00 0.00 0.00 30 1027.4
20260831055340 69 319 2.0 11.0 0.00 0.00 0.00 30 1027.4
20260831054834 70 343 1.0 11.0 0.00 0.00 0.00 30 1027.5
20260831054328 70 303 2.0 7.0 0.00 0.00 0.00 30 1027.4
20260831053824 70 303 2.0 7.0 0.00 0.00 0.00 30 1027.5
20260831053317 70 235 3.0 9.0 0.00 0.00 0.00 31 1027.4
20260831053037 70 73 3.0 10.0 0.00 0.00 0.00 31 1027.5
20260831052307 70 346 3.0 10.0 0.00 0.00 0.00 30 1027.6
20260831051758 70 38 3.0 9.0 0.00 0.00 0.00 30 1027.5
20260831051254 70 8 2.0 8.0 0.00 0.00 0.00 31 1027.6
20260831050746 70 60 2.0 8.0 0.00 0.00 0.00 30 1027.7
20260831050519 70 284 2.0 8.0 0.00 0.00 0.00 29 1027.7
20260831045734 70 320 2.0 8.0 0.00 0.00 0.00 30 1027.7
20260831045457 70 358 2.0 7.0 0.00 0.00 0.00 32 1027.7
20260831044949 70 317 2.0 7.0 0.00 0.00 0.00 34 1027.7
20260831044216 70 45 3.0 8.0 0.00 0.00 0.00 34 1027.8
20260831043715 70 32 4.0 8.0 0.00 0.00 0.00 34 1027.8
20260831043204 70 344 2.0 9.0 0.00 0.00 0.00 31 1027.8
20260831042658 70 10 1.0 9.0 0.00 0.00 0.00 31 1027.8
20260831042153 70 289 1.0 6.0 0.00 0.00 0.00 31 1027.9
20260831041915 70 324 2.0 6.0 0.00 0.00 0.00 31 1027.9
20260831041142 70 57 2.0 6.0 0.00 0.00 0.00 30 1028.0
20260831040633 70 273 2.0 9.0 0.00 0.00 0.00 31 1028.0
20260831040128 70 282 2.0 9.0 0.00 0.00 0.00 30 1028.0
20260831035624 70 54 2.0 7.0 0.00 0.00 0.00 28 1028.1
20260831035115 70 5 2.0 7.0 0.00 0.00 0.00 33 1028.2
20260831034611 69 43 2.0 5.0 0.00 0.00 0.00 33 1028.2
20260831034330 70 299 1.0 6.0 0.00 0.00 0.00 35 1028.2
20260831033557 70 317 1.0 6.0 0.00 0.00 0.00 34 1028.4
20260831033058 70 336 1.0 6.0 0.00 0.00 0.00 34 1028.4
20260831032556 70 332 1.0 6.0 0.00 0.00 0.00 35 1028.4
20260831032056 70 52 1.0 5.0 0.00 0.00 0.00 33 1028.5
20260831031556 70 339 1.0 4.0 0.00 0.00 0.00 34 1028.5
20260831031314 70 25 1.0 5.0 0.00 0.00 0.00 32 1028.7
20260831030556 69 332 1.0 5.0 0.00 0.00 0.00 32 1028.7
20260831030054 70 284 1.0 5.0 0.00 0.00 0.00 32 1028.8
20260831025554 69 281 1.0 5.0 0.00 0.00 0.00 28 1028.9
20260831025056 69 312 1.0 5.0 0.00 0.00 0.00 29 1028.9
20260831024554 69 254 1.0 5.0 0.00 0.00 0.00 27 1029.0
20260831024054 69 235 1.0 4.0 0.00 0.00 0.00 29 1029.0
20260831023554 69 52 1.0 4.0 0.00 0.00 0.00 27 1029.0
20260831023054 69 340 0.0 4.0 0.00 0.00 0.00 29 1029.1
20260831022553 69 271 0.0 4.0 0.00 0.00 0.00 28 1029.2
20260831022054 69 315 0.0 4.0 0.00 0.00 0.00 30 1029.3
20260831021553 68 340 1.0 4.0 0.00 0.00 0.00 34 1029.4
20260831021316 68 312 1.0 4.0 0.00 0.00 0.00 33 1029.5
20260831020547 68 263 1.0 4.0 0.00 0.00 0.00 37 1029.5
20260831020045 68 19 0.0 4.0 0.00 0.00 0.00 36 1029.5
20260831015537 67 275 0.0 3.0 0.00 0.00 0.00 42 1029.6
20260831015031 67 16 1.0 4.0 0.00 0.00 0.00 42 1029.7
20260831014525 67 44 0.0 4.0 0.00 0.00 0.00 42 1029.8
20260831014019 66 311 1.0 4.0 0.00 0.00 0.00 46 1029.8
20260831013516 66 64 1.0 4.0 0.00 0.00 0.00 46 1029.8
20260831013016 66 263 0.0 3.0 0.00 0.00 0.00 47 1029.9
20260831012516 65 315 0.0 3.0 0.00 0.00 0.00 49 1030.1
20260831012016 65 275 0.0 3.0 0.00 0.00 0.00 49 1030.2
20260831011733 64 287 0.0 2.0 0.00 0.00 0.00 50 1030.3
20260831011016 64 271 0.0 3.0 0.00 0.00 0.00 52 1030.4
20260831010514 63 39 0.0 3.0 0.00 0.00 0.00 51 1030.5
20260831010014 63 279 0.0 2.0 0.00 0.00 0.00 53 1030.6
20260831005512 62 299 0.0 2.0 0.00 0.00 0.00 54 1030.6
20260831005012 61 313 0.0 2.0 0.00 0.00 0.00 56 1030.7
20260831004507 61 67 0.0 2.0 0.00 0.00 0.00 56 1030.7
20260831004010 60 300 0.0 1.0 0.00 0.00 0.00 58 1030.7
20260831003510 60 261 0.0 1.0 0.00 0.00 0.00 58 1030.8
20260831003235 60 296 0.0 3.0 0.00 0.00 0.00 58 1030.8
20260831002506 59 216 0.0 3.0 0.00 0.00 0.00 59 1030.9
20260831002009 59 261 0.0 1.0 0.00 0.00 0.00 60 1031.0
20260831001720 58 322 0.0 1.0 0.00 0.00 0.00 60 1031.0
20260831001001 57 212 0.0 0.0 0.00 0.00 0.00 63 1031.0
20260831000503 56 215 0.0 3.0 0.00 0.00 0.00 63 1031.0
20260831000002 55 185 0.0 3.0 0.00 0.00 0.00 63 1031.1
20260830235502 55 230 0.0 1.0 0.00 0.00 0.00 64 1031.2
20260830235449 54 207 0.0 1.0 0.00 0.00 0.00 64 1031.2
20260830234502 54 262 0.0 1.0 0.00 0.00 0.00 65 1031.2
20260830234001 53 272 0.0 2.0 0.00 0.00 0.00 66 1031.3
20260830233502 53 302 0.0 3.0 0.00 0.00 0.00 65 1031.3
20260830232959 52 206 0.0 3.0 0.00 0.00 0.00 65 1031.3
20260830232717 52 265 0.0 1.0 0.00 0.00 0.00 65 1031.3
20260830231959 52 294 0.0 1.0 0.00 0.00 0.00 67 1031.2
20260830231458 51 292 0.0 2.0 0.00 0.00 0.00 69 1031.3
20260830231227 51 303 0.0 2.0 0.00 0.00 0.00 69 1031.3
20260830230458 51 335 0.0 0.0 0.00 0.00 0.00 70 1031.3
20260830225959 50 336 0.0 0.0 0.00 0.00 0.00 73 1031.3
20260830225458 49 335 0.0 0.0 0.00 0.00 0.00 73 1031.4
20260830225001 49 336 0.0 0.0 0.00 0.00 0.00 74 1031.4
20260830224457 48 335 0.0 0.0 0.00 0.00 0.00 75 1031.3
20260830223959 48 335 0.0 0.0 0.00 0.00 0.00 75 1031.3
20260830223457 48 335 0.0 0.0 0.00 0.00 0.00 77 1031.3
20260830222957 47 39 0.0 0.0 0.00 0.00 0.00 79 1031.4
20260830222457 46 50 0.0 0.0 0.00 0.00 0.00 81 1031.3
20260830221955 45 50 0.0 0.0 0.00 0.00 0.00 82 1031.4
20260830221452 45 50 0.0 0.0 0.00 0.00 0.00 82 1031.3
20260830220949 45 50 0.0 0.0 0.00 0.00 0.00 82 1031.2
20260830220713 45 50 0.0 0.0 0.00 0.00 0.00 82 1031.2
20260830220207 44 50 0.0 0.0 0.00 0.00 0.00 85 1031.2
20260830215445 43 50 0.0 0.0 0.00 0.00 0.00 88 1031.2
20260830214942 42 50 0.0 0.0 0.00 0.00 0.00 89 1031.1
20260830214440 41 50 0.0 0.0 0.00 0.00 0.00 89 1031.2
20260830213947 41 50 0.0 0.0 0.00 0.00 0.00 92 1031.0
20260830213435 40 50 0.0 0.0 0.00 0.00 0.00 94 1031.1
20260830212933 39 50 0.0 0.0 0.00 0.00 0.00 94 1031.1
20260830212433 38 50 0.0 0.0 0.00 0.00 0.00 94 1031.0
20260830212155 38 50 0.0 0.0 0.00 0.00 0.00 94 1030.9
20260830211421 38 50 0.0 0.0 0.00 0.00 0.00 94 1030.9
20260830210915 37 50 0.0 0.0 0.00 0.00 0.00 94 1030.8
20260830210409 37 50 0.0 0.0 0.00 0.00 0.00 94 1030.7
20260830210133 37 50 0.0 0.0 0.00 0.00 0.00 94 1030.7
20260830205619 36 50 0.0 0.0 0.00 0.00 0.00 93 1030.6
20260830204850 37 50 0.0 0.0 0.00 0.01 0.00 93 1030.5
20260830204350 37 50 0.0 0.0 0.00 0.01 0.00 94 1030.5
20260830203850 37 50 0.0 0.0 0.00 0.01 0.00 94 1030.5
20260830203332 37 50 0.0 0.0 0.00 0.01 0.00 93 1030.4
20260830202829 37 50 0.0 1.0 0.00 0.01 0.00 94 1030.4
20260830202321 37 50 0.0 1.0 0.00 0.01 0.00 94 1030.4
20260830201815 36 36 0.0 0.0 0.00 0.01 0.00 94 1030.4
20260830201315 36 36 0.0 0.0 0.00 0.01 0.00 93 1030.3
20260830200805 36 36 0.0 0.0 0.00 0.01 0.00 93 1030.3
20260830200517 36 36 0.0 0.0 0.00 0.01 0.00 93 1030.2
20260830200016 36 36 0.0 0.0 0.00 0.01 0.00 93 1030.2
20260830195245 37 36 0.0 0.0 0.00 0.01 0.00 93 1030.2
20260830195004 37 36 0.0 0.0 0.00 0.01 0.00 93 1030.1
20260830194232 37 36 0.0 0.0 0.00 0.01 0.00 93 1030.1
20260830193729 37 36 0.0 0.0 0.00 0.01 0.00 93 1030.1
20260830193221 37 36 0.0 0.0 0.00 0.01 0.00 93 1030.1
20260830192715 37 36 0.0 0.0 0.00 0.01 0.00 93 1030.1
20260830192212 37 36 0.0 0.0 0.00 0.01 0.00 93 1030.1
20260830192146 37 36 0.0 0.0 0.00 0.01 0.00 93 1029.9
20260830191157 37 36 0.0 0.0 0.00 0.01 0.00 93 1029.9
20260830190651 38 36 0.0 0.0 0.00 0.01 0.00 93 1029.8
20260830190144 38 36 0.0 0.0 0.00 0.01 0.00 93 1029.8
20260830185640 38 36 0.0 0.0 0.00 0.01 0.00 93 1029.8
20260830185134 38 36 0.0 0.0 0.00 0.01 0.00 93 1029.8
20260830184627 38 36 0.0 0.0 0.00 0.01 0.00 93 1029.8
20260830184121 38 36 0.0 1.0 0.00 0.01 0.00 93 1029.7
20260830183614 38 36 0.0 1.0 0.00 0.01 0.00 93 1029.7
20260830183110 38 36 0.0 1.0 0.00 0.01 0.00 93 1029.7
20260830182602 38 36 0.0 1.0 0.00 0.01 0.00 92 1029.7
20260830182056 38 36 0.0 0.0 0.00 0.01 0.00 93 1029.7
20260830181551 38 36 0.0 0.0 0.00 0.01 0.00 93 1029.7
20260830181045 38 36 0.0 0.0 0.00 0.01 0.00 93 1029.6
20260830180549 38 36 0.0 0.0 0.00 0.01 0.00 93 1029.7
20260830180033 39 36 0.0 0.0 0.00 0.01 0.00 92 1029.6
20260830175528 39 36 0.0 0.0 0.00 0.01 0.00 92 1029.6
20260830175247 38 36 0.0 0.0 0.00 0.01 0.00 92 1029.6
20260830174746 39 36 0.0 0.0 0.00 0.01 0.00 92 1029.5
20260830174022 39 36 0.0 0.0 0.00 0.01 0.00 92 1029.4
20260830173503 39 36 0.0 0.0 0.00 0.01 0.00 92 1029.3
20260830172956 39 36 0.0 0.0 0.00 0.01 0.00 91 1029.3
20260830172450 40 36 0.0 0.0 0.00 0.01 0.00 92 1029.4
20260830171945 40 36 0.0 0.0 0.00 0.01 0.00 92 1029.4
20260830171704 40 36 0.0 0.0 0.00 0.01 0.00 92 1029.4
20260830170936 40 36 0.0 0.0 0.00 0.01 0.00 92 1029.3
20260830170430 40 36 0.0 0.0 0.00 0.01 0.00 92 1029.4
20260830165920 40 36 0.0 0.0 0.00 0.01 0.00 92 1029.4
20260830165415 40 36 0.0 0.0 0.00 0.01 0.00 92 1029.4
20260830164914 40 36 0.0 0.0 0.00 0.01 0.00 92 1029.5
20260830164626 40 36 0.0 0.0 0.00 0.01 0.00 92 1029.6
20260830163858 40 36 0.0 0.0 0.00 0.01 0.00 92 1029.7
20260830163353 40 36 0.0 0.0 0.00 0.01 0.00 92 1029.6
20260830163107 40 36 0.0 0.0 0.00 0.01 0.00 92 1029.7
20260830162342 40 36 0.0 0.0 0.00 0.01 0.00 92 1029.7
20260830162054 40 36 0.0 0.0 0.00 0.01 0.00 92 1029.7
20260830161328 41 36 0.0 0.0 0.00 0.01 0.00 92 1029.8
20260830160821 41 36 0.0 0.0 0.00 0.01 0.00 92 1029.9
20260830160315 41 36 0.0 0.0 0.00 0.01 0.00 92 1029.9
20260830160033 41 36 0.0 1.0 0.00 0.01 0.00 92 1029.9
20260830155306 41 36 0.0 1.0 0.00 0.01 0.00 92 1029.9
20260830154759 41 36 0.0 0.0 0.00 0.01 0.00 92 1030.1
20260830154745 41 36 0.0 0.0 0.00 0.01 0.00 91 1030.1
20260830153745 42 36 0.0 0.0 0.00 0.01 0.00 92 1030.1
20260830153239 42 36 0.0 0.0 0.00 0.01 0.00 92 1030.1
20260830152733 42 36 0.0 0.0 0.00 0.01 0.00 92 1030.1
20260830152228 42 36 0.0 0.0 0.00 0.01 0.00 92 1030.1
20260830151946 42 36 0.0 0.0 0.00 0.01 0.00 92 1030.1
20260830151217 42 36 0.0 0.0 0.00 0.01 0.00 92 1030.1
20260830150203 42 36 0.0 0.0 0.00 0.01 0.00 92 1030.1
20260830145703 43 36 0.0 0.0 0.00 0.01 0.00 92 1030.2
20260830145200 43 36 0.0 0.0 0.00 0.01 0.00 92 1030.2
20260830144701 43 36 0.0 0.0 0.00 0.01 0.00 92 1030.2
20260830144203 43 36 0.0 0.0 0.00 0.01 0.00 92 1030.2
20260830143659 43 36 0.0 0.0 0.00 0.01 0.00 92 1030.2
20260830143200 44 36 0.0 0.0 0.00 0.01 0.00 92 1030.2
20260830142658 44 36 0.0 0.0 0.00 0.01 0.00 92 1030.2
20260830142159 44 36 0.0 0.0 0.00 0.01 0.00 92 1030.3
20260830141659 44 36 0.0 1.0 0.00 0.01 0.00 92 1030.4
20260830141419 44 36 0.0 1.0 0.00 0.01 0.00 92 1030.3
20260830140659 44 36 0.0 0.0 0.00 0.01 0.00 92 1030.3
20260830140159 44 36 0.0 0.0 0.00 0.01 0.00 91 1030.3
20260830135654 44 36 0.0 0.0 0.00 0.01 0.01 90 1030.2
20260830135146 44 36 0.0 0.0 0.00 0.01 0.01 90 1030.4
20260830134643 45 36 0.0 0.0 0.00 0.01 0.01 91 1030.4
20260830134137 45 36 0.0 0.0 0.00 0.01 0.01 90 1030.3
20260830133629 45 36 0.0 0.0 0.00 0.01 0.01 91 1030.3
20260830133124 45 36 0.0 0.0 0.00 0.01 0.01 91 1030.4
20260830132617 45 36 0.0 0.0 0.00 0.01 0.01 90 1030.5
20260830132113 45 36 0.0 0.0 0.00 0.01 0.01 90 1030.5
20260830131605 45 36 0.0 0.0 0.00 0.01 0.01 89 1030.5
20260830131059 45 36 0.0 0.0 0.00 0.01 0.01 89 1030.6
20260830130554 46 36 0.0 0.0 0.00 0.01 0.01 89 1030.6
20260830130048 46 36 0.0 1.0 0.00 0.01 0.01 89 1030.6
20260830125541 46 36 0.0 1.0 0.00 0.01 0.01 89 1030.6
20260830125035 46 36 0.0 0.0 0.00 0.01 0.01 89 1030.6
20260830124529 46 36 0.0 0.0 0.00 0.01 0.01 88 1030.5
20260830124246 46 36 0.0 0.0 0.00 0.01 0.01 88 1030.5
20260830123518 46 36 0.0 0.0 0.00 0.01 0.01 88 1030.4
20260830123011 46 36 0.0 0.0 0.00 0.01 0.01 88 1030.4
20260830122505 46 36 0.0 0.0 0.00 0.01 0.01 87 1030.4
20260830121958 47 36 0.0 0.0 0.00 0.01 0.01 87 1030.4
20260830121454 47 36 0.0 0.0 0.00 0.01 0.01 87 1030.4
20260830120947 47 36 0.0 0.0 0.00 0.01 0.01 87 1030.5
20260830120448 47 36 0.0 0.0 0.00 0.01 0.01 87 1030.4
20260830115936 47 36 0.0 0.0 0.00 0.01 0.01 86 1030.4
20260830115429 47 36 0.0 0.0 0.00 0.01 0.01 86 1030.3
20260830114923 47 36 0.0 0.0 0.00 0.01 0.01 85 1030.3
20260830114417 48 36 0.0 0.0 0.00 0.01 0.01 85 1030.3
20260830113920 48 36 0.0 0.0 0.00 0.01 0.01 85 1030.3
20260830113404 48 36 0.0 0.0 0.00 0.01 0.01 84 1030.2
20260830112859 48 36 0.0 0.0 0.00 0.01 0.01 84 1030.3
20260830112354 48 36 0.0 0.0 0.00 0.01 0.01 84 1030.3
20260830112116 49 36 0.0 0.0 0.00 0.01 0.01 84 1030.2
20260830111347 49 36 0.0 0.0 0.00 0.01 0.01 84 1030.1
20260830110835 49 36 0.0 0.0 0.00 0.01 0.01 83 1029.9
20260830110329 49 36 0.0 1.0 0.00 0.01 0.01 83 1029.9